Regional Weather Roundup
Issued by NWS

Home | Current Version | Previous Version | Text Only | Print | Product List | Glossary On
Versions: 1 2 3 4 5 6 7 8 9 10 11 12 13 14 15 16 17 18 19 20 21 22 23 24 25 26 27 28 29 30 31 32 33 34 35 36 37 38 39 40 41 42 43 44 45 46 47 48 49 50
000
ASUS44 KLIX 041110
RWRLA
LOUISIANA WEATHER ROUNDUP
NATIONAL WEATHER SERVICE NEW ORLEANS LA
500 AM CST WED MAR 04 2015

NOTE: "FAIR" INDICATES FEW OR NO CLOUDS BELOW 12,000 FEET WITH NO
      SIGNIFICANT WEATHER AND/OR OBSTRUCTIONS TO VISIBILITY.
      SKY/WX - SKY CONDITION AND SIGNIFICANT WEATHER.
      TMP - AIR TEMPERATURE.    DP   - DEWPOINT TEMPERATURE.
      RH  - RELATIVE HUMIDITY.  PRES - PRESSURE.
      HX  - HEAT INDEX.         WCI  - WIND CHILL INDEX.

*  THESE STATIONS ARE NOT NWS OR FAA STATIONS AND ARE NOT UNDER
   NWS QUALITY CONTROL.

LAZ040-048-061>063-065-066-069-041200-
SOUTHEAST LOUISIANA

CITY           SKY/WX    TMP DP  RH WIND       PRES   REMARKS
N.O. AUDUBON   NOT AVBL
N.O. INTL ARPT PTCLDY    67  64  90 SE5       29.97R
N.O. LAKEFRONT CLOUDY    66  62  87 SE5       29.98R FOG
SLIDELL        CLOUDY    67  67 100 SE3       29.98R
BATON ROUGE    CLOUDY    68  67  96 S6        29.95S FOG
BOOTHVILLE     CLEAR     65  65 100 SE5       29.98S FOG
BELLE CHASSE   CLOUDY    66  63  90 CALM      29.97S FOG
BOGALUSA*        N/A     69  65  88 CALM      30.00R
GALLIANO*      LGT RAIN  65  64  97 MISG      29.97S
NEW ROADS*     CLOUDY    66  66  98 SE3       29.95R FOG
GONZALES*      FOG       66  66 100 SE3       29.95F VSB 1
HAMMOND*       CLOUDY    64  63  94 SE3       29.98F FOG
HOUMA*         FOG       64  64 100 CALM      29.97R VSB 1/4
PORT FOURCHON* MOSUNNY   70  66  88 S6        30.00R

$$

LAZ041-044-053-054-041200-
SOUTHWEST LOUISIANA

CITY           SKY/WX    TMP DP  RH WIND       PRES   REMARKS
LAKE CHARLES   CLOUDY    68  66  93 S6        29.90F
LAFAYETTE      CLOUDY    66  65  96 SE5       29.93S FOG
PATTERSON      CLOUDY    66  66 100 S6        29.95S
SALT POINT       N/A     64  64 100 SE5       29.94R
NEW IBERIA     FOG       63  62  97 SE7       29.94S VSB 1/2
CHENAULT AIRPK NOT AVBL

$$

LAZ027-028-041200-
CENTRAL LOUISIANA

CITY           SKY/WX    TMP DP  RH WIND       PRES   REMARKS
FORT POLK      CLOUDY    69  67  94 S9        29.89S
ALEXANDRIA INT CLOUDY    65  65 100 S5        29.90S
ALEXANDRIA     CLOUDY    69  66  90 S6        29.92R

$$

LAZ001-002-041200-
NORTHWEST LOUISIANA

CITY           SKY/WX    TMP DP  RH WIND       PRES   REMARKS
SHREVEPORT     CLOUDY    64  63  96 S7        29.86S
BARKSDALE AFB  CLOUDY    62  62 100 S7        29.87R FOG
DTN SHREVEPORT CLOUDY    63  61  93 SE6       29.87R FOG

$$

LAZ014-016-041200-
NORTHEAST LOUISIANA

CITY           SKY/WX    TMP DP  RH WIND       PRES   REMARKS
MONROE         MOCLDY    64  64 100 S6        29.90S
TALLULAH       CLOUDY    65  63  93 S5        29.92F FOG

$$



USA.gov is the U.S. government's official web portal to all federal, state and local government web resources and services.